Theta_e
288 288 287 287 287 286 286 287 287 287 287 287 287 287 287 287 287 287 287 287 287 287 286 286 286 286 286 286 286 286 286 285 285 284 284 284 284 283 283 283 282 282 282 282 282 282 282 282 282 282 282 282 282 282 282 282 281 281 281 282 281 281
289 288 287 286 286 286 286 286 286 286 287 287 287 287 287 286 286 286 286 286 286 286 286 286 286 286 285 285 285 285 285 284 284 284 283 283 283 283 283 282 282 282 282 282 281 281 281 281 281 281 281 281 281 281 281 280 280 280 280 281 281 281
289 288 287 287 287 287 286 286 286 286 287 286 286 286 285 285 285 285 285 285 285 284 284 284 284 284 284 284 285 284 283 284 284 284 284 283 283 283 282 282 282 282 282 281 281 281 281 281 280 281 281 281 280 280 279 279 279 279 279 280 279 280
289 288 287 287 286 286 285 286 286 286 286 286 286 286 285 285 285 285 285 285 284 284 284 284 284 284 283 283 283 282 282 282 282 282 283 282 282 282 282 282 282 281 281 281 280 280 280 280 280 280 280 279 279 279 280 279 278 278 278 279 279 279
289 287 286 286 286 286 285 285 286 286 286 286 286 285 285 285 285 285 285 284 284 284 284 283 283 282 282 282 282 282 283 283 282 283 282 282 282 282 281 281 280 280 280 280 280 280 279 279 279 279 279 278 278 278 278 278 278 278 278 278 278 278
289 287 286 285 285 285 285 285 286 286 286 286 286 285 285 285 285 284 284 284 283 283 282 282 282 281 282 282 283 282 283 282 282 282 281 281 281 281 280 280 279 279 279 279 279 279 278 278 278 278 278 278 277 277 277 277 277 278 278 278 278 278
288 287 286 286 285 286 285 285 286 286 286 286 285 285 285 284 285 284 284 284 283 282 282 282 282 283 283 283 283 282 282 282 282 281 281 280 280 280 280 279 279 278 278 278 278 277 277 277 277 277 277 277 277 277 277 277 277 277 277 278 278 278
288 288 287 286 286 286 286 286 286 286 286 285 285 285 285 284 284 283 283 283 282 282 283 283 283 283 283 283 283 282 282 282 281 281 280 279 279 279 278 278 278 278 277 277 277 277 277 277 277 276 276 276 276 276 276 277 277 277 277 278 278 278
288 288 288 286 286 286 286 286 286 286 285 285 285 285 285 284 283 283 283 283 283 283 283 283 283 283 283 283 283 282 282 281 280 279 279 278 278 278 277 277 277 277 277 276 276 276 276 276 276 276 276 276 275 276 276 277 277 277 277 277 277 277
288 288 288 287 286 286 286 286 286 286 285 284 284 284 284 284 284 283 283 283 283 283 283 283 283 283 283 283 282 282 281 280 279 278 278 277 277 276 276 276 276 276 276 276 276 275 275 275 275 275 275 275 275 276 277 277 277 277 277 277 277 277
288 288 288 288 287 286 286 286 286 285 285 285 285 285 284 284 284 283 283 283 283 283 284 283 283 283 283 282 281 281 280 279 278 277 277 276 276 276 276 275 275 274 275 275 274 274 274 274 274 274 274 274 276 277 277 277 277 276 276 276 277 277
288 288 288 288 287 286 286 285 285 285 285 285 285 285 284 284 283 283 283 282 282 283 283 283 282 282 282 281 281 280 279 278 277 276 275 275 275 275 275 274 274 274 274 273 273 273 273 273 274 273 273 274 276 277 277 276 276 276 276 275 275 276
288 288 288 287 287 287 286 286 286 286 285 285 285 285 284 284 283 282 282 282 283 283 283 282 282 282 281 281 280 279 278 276 275 275 275 274 274 273 273 273 273 273 273 273 272 272 272 272 272 272 274 275 276 276 276 276 275 276 276 275 275 275
287 287 287 287 288 288 287 287 287 286 285 285 285 285 284 283 283 283 283 283 283 283 282 282 282 281 281 280 279 277 276 275 274 274 273 273 272 272 272 272 272 272 272 272 272 271 271 272 272 272 274 275 276 277 276 276 275 275 275 275 275 275
288 288 288 288 288 288 289 289 287 286 286 285 285 285 284 283 283 283 283 283 283 283 282 282 282 281 280 279 277 276 274 273 273 272 272 271 272 271 271 271 271 271 271 271 270 270 271 271 271 272 273 274 276 276 276 275 275 274 274 275 274 274
289 289 288 288 288 288 289 289 288 288 287 286 286 285 284 283 283 284 283 283 283 283 283 282 281 280 279 278 276 274 273 272 272 272 272 271 270 270 270 271 270 270 270 270 269 269 270 270 270 271 273 274 275 276 276 275 274 274 274 274 274 273
288 288 287 287 287 287 287 287 288 288 287 286 285 285 284 284 284 284 284 284 283 283 282 281 280 280 278 276 274 273 273 272 272 271 271 270 270 270 269 269 269 269 268 268 268 268 268 268 270 271 273 274 274 275 276 274 274 273 273 273 272 272
287 287 286 287 286 285 286 286 286 286 286 286 285 284 284 284 283 283 284 283 283 282 281 280 279 279 276 274 273 272 272 271 271 270 270 269 270 269 269 269 268 267 266 267 266 266 267 268 270 270 272 273 274 275 274 273 272 271 271 271 272 272
287 286 285 285 285 284 284 285 285 285 284 284 284 284 283 283 282 283 283 282 282 281 280 280 279 277 275 273 272 271 272 271 270 269 269 268 269 269 268 268 267 267 266 265 265 265 266 267 268 269 271 272 273 273 271 271 271 271 270 271 271 271
284 284 284 284 284 284 284 284 284 284 283 282 283 282 282 282 282 282 282 282 282 280 280 279 278 276 274 272 272 271 271 271 270 269 268 268 267 268 267 267 266 265 265 264 264 264 264 265 267 269 270 271 272 272 271 271 270 270 270 270 271 272
284 283 283 283 283 283 283 283 283 282 282 282 281 281 281 281 282 282 282 282 282 281 279 277 277 275 273 272 271 270 270 269 268 268 267 266 267 266 266 265 265 265 264 264 263 264 265 265 266 267 269 270 271 272 271 271 270 269 269 270 270 271
282 282 282 283 284 283 282 282 282 281 282 281 281 280 280 281 282 283 283 282 280 278 276 275 274 274 272 271 270 269 269 268 267 266 266 266 266 266 266 265 264 263 263 264 263 262 263 263 264 264 268 270 271 272 271 271 270 269 269 270 270 270
284 284 284 285 285 282 281 281 281 281 281 280 279 279 281 282 282 282 281 279 276 275 273 273 272 271 270 270 268 268 266 267 267 265 264 264 265 264 264 263 263 262 263 263 263 263 263 263 263 264 268 269 271 272 272 271 270 270 270 270 270 270
283 284 284 283 282 280 280 280 281 281 280 278 278 280 282 281 280 279 277 275 274 272 270 269 269 269 267 266 266 265 264 265 265 264 263 264 264 262 261 262 262 263 263 264 263 263 263 264 265 265 267 269 271 272 273 271 271 271 271 271 271 272
281 282 283 282 280 279 279 280 280 280 278 278 279 281 279 278 276 275 274 272 270 268 267 267 265 264 263 263 264 264 264 263 262 261 262 262 262 261 261 261 262 262 263 263 264 264 263 263 263 266 266 269 271 272 273 273 273 274 273 272 271 271
282 282 282 281 278 278 278 279 279 279 277 278 281 277 274 274 273 272 271 269 268 266 265 264 263 263 262 262 262 262 263 262 262 261 262 262 262 263 263 264 264 263 263 263 264 264 264 264 264 266 268 268 270 272 273 274 274 275 273 273 272 272
282 282 282 281 277 277 277 278 279 278 276 280 277 274 272 271 270 269 268 267 266 264 264 262 262 261 261 261 262 262 262 261 260 262 262 261 262 263 264 265 264 263 264 264 263 264 264 265 265 266 267 269 271 272 273 273 274 274 275 273 273 273
281 281 281 281 277 276 275 276 278 278 278 279 275 273 270 268 267 267 267 266 265 264 262 261 261 260 260 261 262 263 264 263 261 263 264 263 263 263 263 264 264 263 263 263 263 264 264 265 266 267 267 269 270 271 272 273 274 274 274 274 273 275
278 278 279 280 279 275 274 274 276 278 280 275 273 271 269 267 268 267 267 265 264 263 261 262 262 261 260 260 261 262 263 263 263 263 263 263 263 263 263 263 262 263 263 263 264 264 264 265 266 267 268 269 270 270 271 272 272 273 273 273 273 273
278 278 279 279 281 277 274 273 273 275 275 272 271 268 267 267 268 268 266 265 264 263 261 263 261 261 262 260 261 262 262 262 262 263 263 264 264 264 264 263 263 263 263 263 264 264 264 265 266 267 268 269 270 271 272 272 271 272 272 272 271 271
277 278 278 279 281 279 275 273 273 273 272 270 268 267 267 268 267 268 266 265 264 263 262 263 263 263 263 262 260 262 263 262 262 262 262 262 263 264 264 264 264 263 263 263 263 263 264 265 266 267 271 271 273 272 271 271 271 272 272 272 273 270
277 277 277 278 279 277 275 273 272 271 270 268 266 266 267 268 267 267 266 264 263 263 262 262 262 262 262 262 262 260 260 260 264 263 262 262 263 265 267 266 264 264 265 264 265 266 265 266 267 271 272 273 273 273 273 274 274 274 273 272 271 268
276 276 276 277 277 276 274 273 271 269 267 267 266 266 267 268 267 267 266 263 263 263 262 262 262 261 262 261 262 261 261 262 262 266 267 267 266 267 269 270 271 271 271 268 267 269 272 272 273 273 273 272 272 273 273 274 274 273 272 271 267 265
274 274 275 276 275 273 272 271 270 268 266 265 264 265 266 267 267 268 267 264 263 262 262 263 262 261 261 261 261 261 261 262 262 263 265 267 268 268 269 270 270 271 271 271 270 269 269 270 271 271 271 272 272 272 273 273 272 271 270 269 267 263
276 276 275 275 273 272 270 269 268 265 264 263 263 264 264 265 266 267 266 264 262 262 261 261 261 261 261 260 260 260 260 261 261 262 264 265 266 267 267 268 269 270 270 270 270 270 269 269 270 271 271 271 271 272 272 272 270 269 268 267 263 261
275 275 274 272 271 270 269 267 266 263 262 261 261 262 263 263 264 265 265 263 262 262 262 262 262 261 261 261 261 261 260 260 261 261 261 261 262 263 265 266 266 266 266 266 267 267 268 268 269 270 270 271 271 272 271 269 266 267 266 264 261 261
273 271 270 269 268 266 266 265 262 260 260 260 260 261 261 261 262 262 260 259 260 261 262 262 262 261 261 261 260 260 259 259 259 259 258 259 260 261 262 262 262 264 264 263 264 265 267 268 269 269 269 270 271 270 269 267 264 262 262 261 260 260
268 267 265 264 264 263 263 261 258 259 258 259 259 260 260 260 260 261 262 260 259 260 261 261 261 261 261 260 260 260 260 260 259 258 258 258 258 258 258 258 260 260 261 263 264 265 266 267 267 268 268 270 269 267 266 262 261 261 260 260 260 260
Wind_Speed
11 10 9 9 8 8 7 7 6 5 5 7 7 10 9 10 8 8 7 7 6 6 8 9 8 7 7 6 6 6 6 6 5 6 5 4 3 2 2 2 2 2 3 3 3 3 3 4 4 4 4 4 3 3 3 3 4 4 4 3 3 4
10 10 9 9 9 9 8 8 7 8 7 7 7 7 8 8 9 8 9 7 7 8 8 7 7 7 7 7 6 6 6 6 6 6 5 4 3 3 2 3 3 3 4 3 4 4 4 4 4 4 4 4 4 4 4 4 4 4 4 3 3 3
9 8 8 8 8 7 7 7 8 8 7 8 8 10 10 10 9 8 8 8 9 10 10 9 8 8 7 7 6 7 6 5 5 4 4 4 3 2 2 3 3 4 4 4 4 5 4 5 5 4 4 4 4 3 3 4 4 4 4 4 5 4
8 8 7 7 7 8 9 8 8 8 9 8 9 8 9 10 9 9 9 8 8 10 10 10 8 8 7 7 7 6 6 5 4 4 4 4 3 3 3 3 3 3 4 4 4 3 3 3 4 4 3 4 4 4 3 4 5 5 5 5 5 5
8 8 9 10 10 10 10 10 9 10 10 10 9 9 9 9 9 8 8 9 9 10 9 9 8 8 8 7 6 7 6 5 4 3 3 3 3 2 2 2 2 2 2 2 2 2 2 3 3 3 3 4 4 5 4 4 5 5 6 6 6 6
8 9 11 11 11 12 12 10 10 9 9 10 9 10 10 9 8 8 9 8 9 9 9 9 8 9 8 8 6 7 6 5 4 3 3 3 2 2 2 2 1 1 1 1 1 1 2 2 3 3 3 4 4 5 5 5 5 5 6 6 7 7
12 12 11 11 11 10 11 12 11 11 11 10 10 9 10 9 8 8 8 8 9 9 9 10 10 10 9 8 7 7 7 5 4 3 3 2 2 2 1 1 1 1 1 0 0 1 1 2 2 3 3 3 4 5 5 5 5 6 6 7 7 7
12 11 11 11 11 12 12 12 12 11 11 11 9 9 9 8 7 7 8 7 8 9 9 9 9 9 9 8 8 8 6 5 4 4 3 2 2 2 1 1 0 0 1 1 2 2 2 2 3 3 4 4 4 5 5 5 6 6 7 7 7 7
14 15 13 11 12 12 11 12 12 12 11 11 10 9 9 9 9 9 9 10 9 8 9 8 8 8 8 7 7 7 6 5 5 4 3 2 2 1 1 1 1 2 2 2 2 2 2 3 3 3 4 4 4 5 5 6 6 7 6 7 7 7
12 12 14 13 12 11 11 11 12 12 12 12 11 10 9 8 11 11 11 10 9 9 9 8 7 7 7 7 7 6 6 5 5 4 3 3 2 2 1 2 2 2 2 3 2 2 2 3 3 4 4 4 4 5 6 6 6 7 7 7 7 7
13 13 12 12 12 13 13 12 11 10 9 10 11 11 12 11 11 12 12 11 10 9 8 7 5 5 6 7 7 6 6 6 5 4 4 3 2 1 2 1 2 3 3 3 3 2 2 3 3 3 3 4 5 5 6 6 7 7 8 8 7 7
9 10 11 11 14 14 14 12 11 12 13 13 13 12 11 10 11 12 11 10 9 7 8 7 5 6 7 7 7 7 7 6 5 5 4 4 3 2 2 2 3 4 4 4 4 3 3 3 3 4 7 8 6 7 7 7 7 8 8 8 8 8
9 10 12 13 14 14 14 13 13 13 14 14 14 13 12 11 11 10 10 11 9 8 7 7 7 7 8 7 7 5 6 6 5 4 4 4 3 3 3 2 4 4 4 4 4 4 3 3 4 7 9 9 10 8 7 7 8 8 8 8 8 8
11 11 13 13 13 14 13 13 13 14 15 13 12 11 9 9 9 11 11 10 9 9 8 7 7 8 8 7 6 6 5 5 5 4 4 4 4 3 3 3 4 4 4 4 4 4 4 4 6 9 9 10 10 10 8 7 7 7 7 8 8 8
12 13 13 13 14 14 16 14 12 13 12 11 10 8 10 11 11 11 11 9 9 9 8 8 7 7 6 6 6 6 5 5 5 5 5 4 4 3 4 4 4 4 4 4 5 4 4 5 6 8 9 10 11 11 10 7 7 8 8 8 9 9
9 10 12 11 11 11 10 10 11 10 9 9 9 11 11 11 11 11 11 9 9 9 9 8 6 7 6 6 6 6 6 6 5 5 4 4 4 4 4 4 4 4 4 5 5 4 4 6 6 9 10 10 11 11 10 8 8 8 9 9 9 8
8 7 8 9 10 8 8 8 9 7 7 9 9 10 10 10 11 10 10 9 9 8 6 8 7 7 6 6 6 6 6 5 5 5 4 4 4 4 4 4 5 4 4 5 4 4 5 5 9 10 11 11 11 11 10 8 8 7 8 8 9 9
10 10 9 6 7 7 8 9 8 9 9 8 9 9 10 9 8 10 8 8 7 8 8 7 7 7 7 7 7 7 6 5 5 5 4 4 3 3 3 3 3 4 5 5 4 5 5 6 9 10 11 11 11 11 7 6 7 7 8 9 9 9
6 6 5 6 7 8 8 8 8 9 8 8 8 8 7 7 8 9 9 8 9 9 9 9 8 8 8 7 7 6 6 6 5 5 4 4 4 4 4 4 4 4 5 5 5 5 5 6 8 10 11 11 11 8 5 6 6 7 8 8 9 9
4 4 6 7 8 7 7 8 9 9 8 8 7 7 8 7 10 10 9 10 8 9 9 9 8 8 8 8 9 8 6 5 4 5 4 5 4 4 4 4 4 4 5 5 5 5 5 6 8 10 12 12 11 9 7 6 6 7 7 8 9 8
5 6 5 6 7 7 8 8 9 8 9 8 8 8 7 10 10 10 10 11 9 8 8 6 7 8 9 9 8 7 7 6 5 4 4 3 3 3 3 4 4 4 4 5 5 7 7 7 7 11 12 12 10 8 6 6 6 7 7 7 8 8
7 5 6 7 8 8 9 9 8 8 9 8 8 8 8 10 11 11 9 7 6 6 5 6 12 11 14 12 9 6 5 4 5 5 5 4 3 4 4 4 4 5 4 4 5 6 6 6 6 8 12 11 11 11 7 6 6 7 8 8 8 9
7 8 10 8 7 8 8 8 7 7 7 7 9 10 11 11 8 6 7 6 5 6 7 6 9 12 11 8 9 6 5 4 5 5 5 4 4 4 4 4 4 4 5 5 5 5 6 6 6 7 10 11 11 11 10 6 7 7 8 8 9 9
6 5 3 3 5 7 8 7 11 7 8 6 8 11 9 5 6 6 6 6 6 7 8 9 7 8 8 7 6 6 5 4 4 4 5 4 4 5 5 4 4 4 4 4 4 5 6 6 8 6 9 11 12 12 12 8 8 8 8 9 9 10
7 8 8 6 6 7 6 10 12 9 8 9 16 8 5 5 6 5 6 6 9 11 11 9 10 9 6 7 5 6 6 5 4 4 4 4 4 4 4 5 4 4 4 3 4 4 5 5 5 9 8 11 12 12 12 13 11 13 9 9 10 10
6 7 7 6 6 5 6 11 10 9 10 16 7 6 4 5 5 6 9 10 10 11 8 10 8 6 5 6 6 5 5 5 5 4 4 4 4 4 4 4 4 3 4 3 3 3 3 4 4 6 9 9 12 12 13 13 13 13 9 9 10 10
9 8 7 6 7 6 7 8 11 11 12 11 7 9 10 10 10 11 12 11 10 10 7 6 5 6 5 5 6 7 6 5 5 5 4 4 4 4 4 3 3 3 3 3 3 3 3 3 4 4 7 11 12 12 12 12 12 12 14 10 9 10
4 4 7 8 7 7 6 9 9 12 14 6 8 8 12 11 12 11 13 11 8 8 8 8 6 5 5 6 5 5 5 6 6 5 4 4 4 4 4 3 2 3 3 3 2 2 2 3 3 5 6 7 9 9 10 11 12 12 12 13 12 17
8 9 10 10 8 9 7 11 10 11 4 6 7 10 12 11 12 13 10 10 7 7 7 8 7 6 6 6 5 5 5 5 5 5 4 4 4 4 3 3 3 3 3 3 2 2 3 4 4 5 6 6 6 7 8 7 6 10 12 9 8 8
10 11 11 12 10 10 10 11 12 11 6 5 8 11 11 11 12 11 12 10 8 7 8 7 9 9 6 7 6 6 5 5 5 5 6 6 5 4 4 4 4 4 3 2 2 3 4 4 4 5 6 6 6 6 5 6 7 7 7 6 6 8
11 12 12 13 9 7 9 11 10 8 8 8 9 11 13 11 12 10 12 9 6 6 6 6 6 6 6 5 5 4 4 5 6 5 4 3 2 3 3 3 4 3 3 3 4 5 6 6 5 5 8 9 10 9 8 7 7 7 6 6 12 7
10 11 12 12 7 7 9 10 9 7 8 8 10 10 12 11 9 9 9 7 7 6 6 5 5 5 4 5 5 4 4 5 8 6 5 4 7 12 12 10 6 5 4 6 6 6 8 7 7 12 15 14 13 13 14 13 14 12 9 10 10 5
10 9 10 11 7 8 8 8 7 7 8 9 10 10 11 9 8 6 5 6 7 8 6 6 5 5 4 4 4 4 4 3 5 12 15 12 10 10 12 14 16 16 15 9 6 7 13 14 15 15 14 14 14 14 14 13 11 11 8 9 5 3
8 10 14 9 5 7 6 7 6 6 7 8 8 6 7 9 8 7 7 6 4 6 5 4 5 5 5 4 4 4 3 3 3 3 10 14 13 12 13 14 14 14 13 14 12 9 7 9 10 12 13 13 13 13 13 11 9 6 6 7 4 2
10 8 7 5 5 5 5 6 5 4 6 8 8 8 9 9 7 5 3 3 5 5 6 5 5 5 5 5 5 4 4 4 3 3 2 4 10 11 12 13 14 14 13 12 10 10 9 10 11 13 13 13 12 13 10 8 4 6 6 4 1 1
4 5 5 5 6 6 5 6 4 5 6 7 8 8 8 7 6 4 4 4 6 5 5 5 4 4 4 4 4 4 4 4 4 3 2 2 2 4 7 8 5 2 0 2 5 7 9 11 12 12 12 11 12 10 8 3 3 4 2 2 1 1
4 4 4 4 4 4 4 4 1 3 5 7 7 8 7 6 6 3 4 6 6 3 3 3 3 4 3 3 4 4 4 4 3 3 4 4 4 3 3 3 3 4 4 4 5 7 10 11 11 10 10 11 12 6 3 5 2 2 1 1 1 2
2 1 1 1 0 1 1 0 2 3 5 5 7 7 7 5 4 3 4 4 5 3 3 3 3 3 4 4 4 3 3 3 3 3 3 3 4 4 4 4 3 2 4 8 10 11 10 9 9 9 9 10 2 6 4 2 2 2 2 1 2 2
Wind_Direction
192 187 181 175 176 172 167 163 162 164 163 158 156 151 150 145 141 137 136 136 132 134 134 133 130 128 127 129 130 131 128 121 114 107 105 111 119 123 124 114 85 73 69 64 52 48 41 37 33 19 17 11 16 10 13 18 359 349 344 346 343 333
189 181 177 174 176 174 170 165 165 170 168 164 157 146 144 145 144 145 143 142 137 135 133 134 133 133 135 137 139 133 124 119 120 126 133 137 139 115 102 82 73 62 55 51 46 37 36 27 25 17 11 4 14 1 1 357 348 341 332 333 331 319
182 176 176 176 175 173 168 168 173 173 171 174 166 160 157 156 155 152 148 147 146 143 143 144 143 142 140 141 136 126 127 137 144 138 132 125 94 90 82 71 61 54 49 44 39 31 22 19 10 10 359 359 357 349 345 336 335 330 324 322 315 310
177 170 173 176 170 172 175 175 177 179 183 178 173 170 169 164 164 161 155 155 153 152 148 148 147 147 148 145 142 139 144 145 132 126 118 96 84 72 64 64 59 52 45 45 36 29 21 9 4 358 351 347 340 336 338 327 331 323 321 319 313 315
178 180 182 181 180 177 180 182 186 186 186 182 183 177 175 172 166 162 162 160 159 157 153 150 152 153 153 148 147 144 136 126 116 109 98 92 98 88 71 64 65 59 59 55 47 29 18 359 352 350 342 333 329 322 321 320 318 317 314 313 309 311
178 180 186 186 186 183 183 182 187 190 189 188 184 184 175 173 171 169 168 166 163 157 154 156 156 157 158 154 146 139 128 123 113 106 108 114 111 114 96 76 65 73 56 62 57 27 358 343 332 325 318 313 309 306 304 305 302 298 296 294 298 302
190 195 189 185 182 178 179 184 191 190 192 189 187 185 178 175 175 175 173 169 163 164 165 165 165 163 161 151 144 138 128 123 126 124 126 134 134 127 131 115 70 40 51 356 293 298 281 288 294 289 285 283 282 284 285 286 288 286 284 283 284 288
193 190 188 184 182 181 183 186 190 192 191 192 188 184 178 179 168 172 171 172 170 175 177 172 170 165 159 151 141 135 131 133 136 141 140 139 143 135 126 100 39 271 272 244 247 252 263 266 274 276 277 281 282 282 282 281 280 279 279 278 277 277
197 197 187 184 182 182 184 186 188 190 190 190 189 190 182 177 173 179 182 183 186 185 183 180 176 167 160 151 138 134 139 143 144 152 151 144 139 147 174 183 224 250 246 257 241 258 261 274 275 276 280 282 282 281 281 281 277 278 277 275 274 275
195 189 189 183 184 185 187 188 189 188 189 189 189 191 186 180 178 182 187 188 190 189 188 187 181 169 157 141 135 141 146 147 152 157 152 147 157 157 193 222 234 249 246 254 254 259 268 274 276 277 279 281 281 281 278 279 281 282 281 279 278 275
192 188 185 186 182 188 191 189 188 185 189 193 192 191 192 183 180 184 187 189 193 193 188 183 174 166 144 138 142 151 157 158 158 159 154 151 151 159 196 225 242 251 249 248 252 252 262 268 272 272 284 290 288 287 289 285 282 283 283 282 281 279
193 187 185 187 191 192 191 188 188 192 194 199 198 192 190 176 188 187 184 185 192 187 183 179 169 166 150 151 160 164 164 162 163 164 158 153 158 178 207 222 250 248 254 253 248 242 245 255 257 263 270 275 284 292 289 287 284 284 281 284 285 280
190 183 188 191 191 192 190 192 192 194 200 202 198 194 186 179 183 186 184 191 192 184 178 176 176 170 166 164 164 163 162 164 162 164 158 154 164 189 205 228 234 239 245 244 246 244 242 247 252 262 274 281 283 285 285 283 283 280 280 277 280 283
194 193 196 196 194 192 192 194 196 197 204 199 196 189 170 176 183 189 196 196 187 182 177 183 176 175 171 162 167 162 163 156 158 165 162 165 174 196 199 224 234 238 244 244 245 243 244 255 258 269 279 284 283 281 284 283 280 280 277 279 278 281
199 198 197 193 193 194 198 194 192 200 198 192 188 162 171 186 191 196 199 194 186 181 183 186 181 179 169 170 162 160 155 160 167 167 168 177 176 180 207 222 224 231 238 246 247 247 250 256 263 274 281 283 283 283 285 281 277 278 276 277 278 279
203 203 202 199 198 199 195 193 199 200 192 186 177 177 181 185 195 198 201 194 190 186 186 186 177 179 175 164 159 164 169 171 182 175 169 160 171 193 212 219 221 233 235 241 249 251 250 261 265 276 281 284 285 286 286 279 279 276 274 274 277 279
195 197 201 205 199 189 183 194 196 187 176 177 180 183 182 191 195 200 201 196 191 185 185 182 184 184 171 165 166 168 175 175 172 164 173 172 184 193 206 214 217 224 230 239 244 251 256 258 269 279 285 287 287 287 288 280 277 274 273 273 275 277
193 193 198 179 168 181 187 192 184 183 186 179 181 181 187 188 195 203 198 195 189 188 189 180 185 181 170 172 173 176 180 175 175 173 171 168 185 196 204 224 216 222 225 232 237 246 251 259 269 281 284 284 285 289 287 277 272 272 270 268 268 270
179 179 151 165 175 177 186 174 169 175 170 173 184 176 183 185 197 203 200 203 196 190 187 185 184 179 174 173 172 180 180 171 173 174 166 173 194 194 205 204 213 217 223 228 231 244 257 262 271 278 280 283 285 290 276 270 267 265 266 269 272 275
146 152 166 170 178 179 166 164 165 169 169 177 173 173 182 187 203 204 197 202 197 190 187 187 179 171 173 172 184 178 179 171 172 172 174 183 188 205 201 205 214 220 223 223 230 235 252 259 265 272 280 282 281 277 273 269 267 269 268 275 271 271
158 158 159 162 173 176 166 162 161 162 176 175 172 177 181 198 205 199 198 205 196 184 177 176 174 177 175 180 183 169 171 175 174 161 164 185 194 207 199 209 221 219 227 221 230 241 248 260 264 272 278 279 277 276 266 263 268 269 272 277 280 277
131 147 170 186 193 164 162 160 164 176 177 177 168 179 197 204 203 201 198 185 165 168 169 176 175 178 173 178 158 163 170 151 151 169 177 185 195 203 203 208 220 219 231 221 223 231 241 251 256 263 275 279 278 275 271 267 263 269 276 277 278 281
176 178 187 196 170 155 163 159 159 177 187 169 175 200 207 206 192 176 175 164 159 166 167 171 177 177 175 159 160 155 149 165 171 166 177 183 201 203 212 212 226 230 232 221 225 233 242 237 251 263 273 280 279 277 272 264 261 266 273 276 273 268
197 203 197 170 152 159 161 164 174 187 168 170 200 210 204 168 158 163 156 160 167 160 157 159 156 148 152 143 143 150 162 169 161 167 174 195 199 201 217 219 227 230 233 231 225 234 242 245 250 263 274 278 277 275 269 263 263 262 271 276 277 284
196 204 199 170 161 170 168 171 181 186 177 188 213 197 145 157 151 154 157 156 153 158 156 159 155 150 147 148 155 144 161 157 164 173 177 195 203 212 224 226 225 230 236 233 232 223 226 241 253 262 268 271 275 277 275 271 272 276 278 281 284 283
200 203 196 164 167 172 171 176 186 186 185 214 200 122 133 141 151 147 151 157 158 151 162 157 150 143 151 150 154 162 156 170 168 176 196 194 206 219 222 231 212 222 229 234 234 225 224 233 241 255 264 276 275 276 279 281 282 281 277 274 277 285
205 205 195 187 171 186 186 195 190 189 202 215 148 161 158 153 141 152 152 165 163 165 158 150 158 157 157 156 158 165 176 170 167 189 197 191 214 221 231 239 221 238 251 251 249 253 248 242 242 249 261 268 276 282 284 283 282 282 284 285 283 282
229 223 221 206 182 191 192 198 201 196 218 171 169 161 146 150 155 166 176 163 168 167 149 153 153 161 163 166 179 185 182 172 179 197 190 192 211 211 221 240 227 236 245 248 255 253 262 260 258 273 274 270 271 275 281 291 292 291 287 285 286 287
211 221 222 225 197 192 200 204 213 222 206 165 153 150 148 160 165 168 165 176 170 160 165 166 171 169 169 181 182 190 190 189 189 196 203 201 207 208 213 225 226 240 241 251 255 259 255 272 279 282 283 275 271 272 269 274 290 298 293 288 288 306
210 220 220 228 217 188 201 205 217 222 202 156 153 146 153 169 182 182 180 175 168 170 177 182 174 170 172 183 181 182 186 192 195 199 206 201 201 200 214 205 218 225 240 256 265 267 280 272 267 276 281 278 268 270 291 302 301 291 291 301 315 311
213 222 221 229 224 195 202 216 224 216 196 167 151 163 174 186 192 192 173 170 168 179 172 179 165 185 174 167 181 207 195 185 190 203 223 225 217 224 218 222 231 220 224 230 236 263 274 273 264 263 271 263 281 300 302 299 291 294 304 324 320 330
220 223 226 235 223 204 210 217 217 204 179 163 164 170 186 192 176 180 179 176 180 171 168 183 178 177 175 171 182 190 234 246 226 216 212 224 219 227 235 229 228 220 217 241 233 224 256 262 269 270 268 283 298 296 293 289 291 300 310 320 339 3
225 231 239 239 223 216 217 220 211 191 181 174 172 184 196 183 180 190 181 170 196 180 171 167 166 171 180 177 178 182 196 205 223 229 230 229 228 232 237 241 246 247 237 229 244 237 242 261 271 280 295 296 291 292 291 292 299 304 324 332 358 333
230 227 233 240 228 225 221 227 218 191 166 162 162 183 196 193 189 192 189 179 170 146 171 171 168 159 174 179 179 186 188 207 224 230 222 230 239 241 247 252 255 256 260 266 268 271 274 274 278 281 283 285 288 287 287 292 304 332 339 336 9 305
225 231 241 243 231 226 223 227 223 166 159 162 162 184 198 200 204 201 159 144 154 168 177 181 174 181 179 178 176 180 187 202 209 229 218 192 208 229 245 252 253 257 261 260 260 267 277 279 281 282 282 283 285 284 288 298 351 352 340 345 321 282
233 234 235 235 227 226 216 228 209 166 160 148 157 182 192 183 189 171 170 164 166 170 179 182 185 180 186 184 180 183 183 201 204 213 217 248 247 205 212 216 228 230 239 264 272 277 281 283 281 279 279 280 280 284 287 328 9 338 61 6 250 273
240 245 244 242 236 224 227 240 100 100 119 140 149 151 167 168 163 140 130 145 165 172 170 170 178 182 178 175 180 180 190 199 200 199 206 221 232 241 232 205 203 215 234 251 270 275 273 272 274 273 277 278 280 288 333 337 325 285 246 223 223 248
234 284 10 24 12 258 218 36 65 107 115 132 139 157 135 134 138 137 142 144 161 167 168 173 175 178 183 182 187 182 191 189 193 197 217 224 234 243 256 273 253 232 233 262 268 266 268 268 267 272 274 278 325 63 32 322 284 266 252 254 248 253